Time,TemperatureF,DewpointF,PressureIn,WindDirection,WindDirectionDegrees,WindSpeedMPH,WindSpeedGustMPH,Humidity,HourlyPrecipIn,Conditions,Clouds,dailyrainin,SoftwareType,DateUTC
2013-01-29 00:54:00,70.0,66.6,29.82,SE,124,8.0,18.0,89,0.00,,,0.02,Wunderground v.1.15,2013-01-29 06:54:00,
2013-01-29 01:00:00,70.1,66.7,29.82,SE,139,8.0,8.0,89,0.00,,,0.02,Wunderground v.1.15,2013-01-29 07:00:00,
2013-01-29 01:06:00,70.1,66.7,29.81,SSE,156,8.0,16.0,89,0.00,,,0.00,Wunderground v.1.15,2013-01-29 07:06:00,
2013-01-29 01:12:00,70.2,66.8,29.81,SE,146,8.0,15.0,89,0.00,,,0.00,Wunderground v.1.15,2013-01-29 07:12:00,
2013-01-29 01:18:00,70.2,66.5,29.81,South,169,9.0,16.0,88,0.00,,,0.00,Wunderground v.1.15,2013-01-29 07:18:00,
2013-01-29 01:24:00,70.2,66.5,29.81,SSW,193,7.0,16.0,88,0.00,,,0.00,Wunderground v.1.15,2013-01-29 07:24:00,
2013-01-29 01:30:00,70.2,66.5,29.81,ESE,122,8.0,16.0,88,0.00,,,0.00,Wunderground v.1.15,2013-01-29 07:30:00,
2013-01-29 01:36:00,70.2,66.5,29.81,SSE,166,8.0,16.0,88,0.00,,,0.00,Wunderground v.1.15,2013-01-29 07:36:00,
2013-01-29 01:42:00,70.2,66.5,29.80,SSE,155,7.0,16.0,88,0.00,,,0.00,Wunderground v.1.15,2013-01-29 07:42:00,
2013-01-29 01:48:00,70.2,66.5,29.80,SSE,158,7.0,16.0,88,0.00,,,0.00,Wunderground v.1.15,2013-01-29 07:48:00,
2013-01-29 01:54:00,70.2,66.5,29.79,ESE,121,7.0,16.0,88,0.00,,,0.00,Wunderground v.1.15,2013-01-29 07:54:00,
2013-01-29 02:00:00,70.1,66.4,29.79,SE,145,7.0,16.0,88,0.00,,,0.00,Wunderground v.1.15,2013-01-29 08:00:00,
2013-01-29 02:06:00,70.1,66.4,29.79,ESE,115,7.0,16.0,88,0.00,,,0.00,Wunderground v.1.15,2013-01-29 08:06:00,
2013-01-29 02:12:00,70.1,66.4,29.79,SE,139,7.0,15.0,88,0.00,,,0.00,Wunderground v.1.15,2013-01-29 08:12:00,
2013-01-29 02:18:00,70.1,66.4,29.79,SSE,156,6.0,15.0,88,0.00,,,0.00,Wunderground v.1.15,2013-01-29 08:18:00,
2013-01-29 02:24:00,70.1,66.4,29.79,SSE,160,6.0,15.0,88,0.00,,,0.00,Wunderground v.1.15,2013-01-29 08:24:00,
2013-01-29 02:30:00,70.2,66.5,29.80,SSW,198,6.0,6.0,88,0.00,,,0.00,Wunderground v.1.15,2013-01-29 08:30:00,
2013-01-29 02:36:00,70.2,66.5,29.80,SSE,156,6.0,15.0,88,0.00,,,0.00,Wunderground v.1.15,2013-01-29 08:36:00,
2013-01-29 02:42:00,70.2,66.5,29.80,SSE,153,6.0,15.0,88,0.00,,,0.00,Wunderground v.1.15,2013-01-29 08:42:00,
2013-01-29 02:48:00,70.2,66.5,29.80,SW,233,6.0,15.0,88,0.00,,,0.00,Wunderground v.1.15,2013-01-29 08:48:00,
2013-01-29 02:54:00,70.1,66.7,29.79,SE,131,6.0,15.0,89,0.00,,,0.00,Wunderground v.1.15,2013-01-29 08:54:00,
2013-01-29 03:00:00,70.0,66.6,29.79,SSE,150,6.0,15.0,89,0.00,,,0.00,Wunderground v.1.15,2013-01-29 09:00:00,
2013-01-29 03:06:00,70.0,66.6,29.79,SE,124,7.0,15.0,89,0.00,,,0.00,Wunderground v.1.15,2013-01-29 09:06:00,
2013-01-29 03:12:00,70.0,66.6,29.79,SSE,149,7.0,13.0,89,0.00,,,0.00,Wunderground v.1.15,2013-01-29 09:12:00,
2013-01-29 03:18:00,69.9,66.5,29.79,SSW,193,7.0,13.0,89,0.00,,,0.00,Wunderground v.1.15,2013-01-29 09:18:00,
2013-01-29 03:24:00,69.8,66.7,29.78,SE,143,7.0,13.0,90,0.00,,,0.00,Wunderground v.1.15,2013-01-29 09:24:00,
2013-01-29 03:30:00,69.7,66.6,29.78,SSE,166,7.0,7.0,90,0.00,,,0.00,Wunderground v.1.15,2013-01-29 09:30:00,
2013-01-29 03:36:00,69.6,66.5,29.78,SSE,156,6.0,13.0,90,0.00,,,0.00,Wunderground v.1.15,2013-01-29 09:36:00,
2013-01-29 03:42:00,69.7,66.6,29.78,South,176,6.0,13.0,90,0.00,,,0.00,Wunderground v.1.15,2013-01-29 09:42:00,
2013-01-29 03:48:00,69.7,66.6,29.78,South,173,6.0,13.0,90,0.00,,,0.00,Wunderground v.1.15,2013-01-29 09:48:00,
2013-01-29 03:54:00,69.8,66.7,29.78,SE,146,6.0,13.0,90,0.00,,,0.00,Wunderground v.1.15,2013-01-29 09:54:00,
2013-01-29 04:00:00,69.8,66.4,29.77,SE,132,7.0,13.0,89,0.00,,,0.00,Wunderground v.1.15,2013-01-29 10:00:00,
2013-01-29 04:06:00,69.9,66.5,29.77,SSW,205,8.0,14.0,89,0.00,,,0.00,Wunderground v.1.15,2013-01-29 10:06:00,
2013-01-29 04:12:00,70.0,66.6,29.77,South,179,7.0,14.0,89,0.00,,,0.00,Wunderground v.1.15,2013-01-29 10:12:00,
2013-01-29 04:18:00,70.0,66.6,29.77,SSE,162,7.0,14.0,89,0.00,,,0.00,Wunderground v.1.15,2013-01-29 10:18:00,
2013-01-29 04:24:00,70.1,66.7,29.77,SSW,200,7.0,14.0,89,0.00,,,0.00,Wunderground v.1.15,2013-01-29 10:24:00,
2013-01-29 04:30:00,70.1,66.4,29.77,South,187,6.0,14.0,88,0.00,,,0.00,Wunderground v.1.15,2013-01-29 10:30:00,
2013-01-29 04:36:00,70.1,66.4,29.76,SE,146,6.0,14.0,88,0.00,,,0.00,Wunderground v.1.15,2013-01-29 10:36:00,
2013-01-29 04:42:00,70.1,66.4,29.76,ESE,122,8.0,14.0,88,0.00,,,0.00,Wunderground v.1.15,2013-01-29 10:42:00,
2013-01-29 04:48:00,70.1,66.4,29.76,SW,222,8.0,14.0,88,0.00,,,0.00,Wunderground v.1.15,2013-01-29 10:48:00,
2013-01-29 04:54:00,70.1,66.4,29.76,SW,227,7.0,14.0,88,0.00,,,0.00,Wunderground v.1.15,2013-01-29 10:54:00,
2013-01-29 05:00:00,70.1,66.4,29.76,SSW,195,7.0,14.0,88,0.00,,,0.00,Wunderground v.1.15,2013-01-29 11:00:00,
2013-01-29 05:06:00,70.1,66.4,29.75,SSE,167,7.0,15.0,88,0.00,,,0.00,Wunderground v.1.15,2013-01-29 11:06:00,
2013-01-29 05:12:00,70.0,66.3,29.75,SE,134,7.0,15.0,88,0.00,,,0.00,Wunderground v.1.15,2013-01-29 11:12:00,
2013-01-29 05:18:00,69.9,66.5,29.75,SSE,159,7.0,15.0,89,0.00,,,0.00,Wunderground v.1.15,2013-01-29 11:18:00,
2013-01-29 05:24:00,69.9,66.5,29.75,SSE,165,6.0,15.0,89,0.00,,,0.00,Wunderground v.1.15,2013-01-29 11:24:00,
2013-01-29 05:30:00,69.8,66.4,29.74,SSE,158,6.0,6.0,89,0.00,,,0.00,Wunderground v.1.15,2013-01-29 11:30:00,
2013-01-29 05:36:00,69.7,66.3,29.74,SSE,160,6.0,15.0,89,0.00,,,0.00,Wunderground v.1.15,2013-01-29 11:36:00,
2013-01-29 05:42:00,69.6,66.5,29.74,SE,136,6.0,15.0,90,0.00,,,0.00,Wunderground v.1.15,2013-01-29 11:42:00,
2013-01-29 05:48:00,69.5,66.4,29.74,SE,139,7.0,15.0,90,0.00,,,0.00,Wunderground v.1.15,2013-01-29 11:48:00,
2013-01-29 05:54:00,69.4,66.3,29.73,SSE,150,6.0,15.0,90,0.00,,,0.00,Wunderground v.1.15,2013-01-29 11:54:00,
2013-01-29 06:00:00,69.3,66.6,29.73,SE,124,7.0,7.0,91,0.00,,,0.00,Wunderground v.1.15,2013-01-29 12:00:00,
2013-01-29 06:06:00,69.3,66.6,29.73,SE,135,6.0,13.0,91,0.00,,,0.00,Wunderground v.1.15,2013-01-29 12:06:00,
2013-01-29 06:12:00,69.2,66.5,29.73,SSE,150,7.0,13.0,91,0.00,,,0.00,Wunderground v.1.15,2013-01-29 12:12:00,
2013-01-29 06:18:00,69.2,66.5,29.73,SSE,150,7.0,13.0,91,0.00,,,0.00,Wunderground v.1.15,2013-01-29 12:18:00,
2013-01-29 06:24:00,69.1,66.4,29.72,SSE,152,7.0,13.0,91,0.00,,,0.00,Wunderground v.1.15,2013-01-29 12:24:00,
2013-01-29 06:30:00,69.1,66.4,29.72,SSW,203,7.0,7.0,91,0.00,,,0.00,Wunderground v.1.15,2013-01-29 12:30:00,
2013-01-29 06:36:00,69.1,66.4,29.72,SE,124,6.0,13.0,91,0.00,,,0.00,Wunderground v.1.15,2013-01-29 12:36:00,
2013-01-29 06:42:00,69.2,66.5,29.73,SE,141,6.0,13.0,91,0.00,,,0.00,Wunderground v.1.15,2013-01-29 12:42:00,
2013-01-29 06:48:00,69.2,66.5,29.72,ESE,115,6.0,13.0,91,0.00,,,0.00,Wunderground v.1.15,2013-01-29 12:48:00,
2013-01-29 06:54:00,69.2,66.5,29.72,SSE,159,6.0,13.0,91,0.00,,,0.00,Wunderground v.1.15,2013-01-29 12:54:00,
2013-01-29 07:00:00,69.3,66.6,29.71,SE,143,7.0,13.0,91,0.00,,,0.00,Wunderground v.1.15,2013-01-29 13:00:00,
2013-01-29 07:06:00,69.3,66.6,29.72,ESE,108,7.0,13.0,91,0.00,,,0.00,Wunderground v.1.15,2013-01-29 13:06:00,
2013-01-29 07:12:00,69.3,66.6,29.72,SSE,150,8.0,12.0,91,0.00,,,0.00,Wunderground v.1.15,2013-01-29 13:12:00,
2013-01-29 07:18:00,69.4,66.7,29.72,SE,138,8.0,12.0,91,0.00,,,0.00,Wunderground v.1.15,2013-01-29 13:18:00,
2013-01-29 07:24:00,69.3,66.6,29.71,SE,135,8.0,12.0,91,0.00,,,0.00,Wunderground v.1.15,2013-01-29 13:24:00,
2013-01-29 07:30:00,69.2,66.5,29.71,SE,136,8.0,12.0,91,0.00,,,0.00,Wunderground v.1.15,2013-01-29 13:30:00,
2013-01-29 07:36:00,69.2,66.5,29.71,SE,139,8.0,12.0,91,0.00,,,0.00,Wunderground v.1.15,2013-01-29 13:36:00,
2013-01-29 07:42:00,69.2,66.5,29.71,SE,141,7.0,9.0,91,0.00,,,0.00,Wunderground v.1.15,2013-01-29 13:42:00,
2013-01-29 07:48:00,69.2,66.5,29.70,SE,141,7.0,12.0,91,0.00,,,0.00,Wunderground v.1.15,2013-01-29 13:48:00,
2013-01-29 07:54:00,69.2,66.5,29.70,SE,125,6.0,12.0,91,0.00,,,0.00,Wunderground v.1.15,2013-01-29 13:54:00,
2013-01-29 08:00:00,69.2,66.5,29.70,SSE,148,6.0,12.0,91,0.00,,,0.00,Wunderground v.1.15,2013-01-29 14:00:00,
2013-01-29 08:06:00,69.2,66.5,29.70,SSE,158,7.0,13.0,91,0.00,,,0.00,Wunderground v.1.15,2013-01-29 14:06:00,
2013-01-29 08:12:00,69.2,66.5,29.70,SE,141,8.0,9.0,91,0.00,,,0.00,Wunderground v.1.15,2013-01-29 14:12:00,
2013-01-29 08:18:00,69.3,66.6,29.70,SE,135,8.0,13.0,91,0.00,,,0.00,Wunderground v.1.15,2013-01-29 14:18:00,
2013-01-29 08:24:00,69.3,66.6,29.70,SE,139,7.0,13.0,91,0.00,,,0.00,Wunderground v.1.15,2013-01-29 14:24:00,
2013-01-29 08:30:00,69.4,66.7,29.69,SSE,153,7.0,13.0,91,0.00,,,0.00,Wunderground v.1.15,2013-01-29 14:30:00,
2013-01-29 08:36:00,69.5,66.4,29.69,SE,145,9.0,13.0,90,0.00,,,0.00,Wunderground v.1.15,2013-01-29 14:36:00,
2013-01-29 08:42:00,69.5,66.4,29.68,SE,138,8.0,13.0,90,0.00,,,0.00,Wunderground v.1.15,2013-01-29 14:42:00,
2013-01-29 08:48:00,69.5,66.4,29.68,SE,135,8.0,13.0,90,0.00,,,0.00,Wunderground v.1.15,2013-01-29 14:48:00,
2013-01-29 08:54:00,69.6,66.5,29.67,SE,135,9.0,13.0,90,0.00,,,0.00,Wunderground v.1.15,2013-01-29 14:54:00,
2013-01-29 09:00:00,69.6,66.5,29.67,SSE,168,9.0,9.0,90,0.00,,,0.00,Wunderground v.1.15,2013-01-29 15:00:00,
2013-01-29 09:06:00,69.8,66.7,29.68,SSE,160,9.0,19.0,90,0.00,,,0.00,Wunderground v.1.15,2013-01-29 15:06:00,
2013-01-29 09:12:00,69.9,66.5,29.68,SSE,165,8.0,19.0,89,0.00,,,0.00,Wunderground v.1.15,2013-01-29 15:12:00,
2013-01-29 09:18:00,70.0,66.6,29.69,ESE,110,7.0,19.0,89,0.00,,,0.00,Wunderground v.1.15,2013-01-29 15:18:00,
2013-01-29 09:24:00,70.1,66.7,29.69,SW,226,5.0,19.0,89,0.00,,,0.00,Wunderground v.1.15,2013-01-29 15:24:00,
2013-01-29 09:30:00,70.2,66.5,29.69,SSE,159,5.0,19.0,88,0.00,,,0.00,Wunderground v.1.15,2013-01-29 15:30:00,
2013-01-29 09:36:00,70.4,66.7,29.68,SSE,155,6.0,19.0,88,0.00,,,0.00,Wunderground v.1.15,2013-01-29 15:36:00,
2013-01-29 09:42:00,70.5,66.4,29.68,SSE,159,6.0,10.0,87,0.00,,,0.00,Wunderground v.1.15,2013-01-29 15:42:00,
2013-01-29 09:48:00,70.6,66.5,29.69,SE,140,6.0,19.0,87,0.00,,,0.00,Wunderground v.1.15,2013-01-29 15:48:00,
2013-01-29 09:54:00,70.7,66.6,29.68,SSE,156,4.0,19.0,87,0.00,,,0.00,Wunderground v.1.15,2013-01-29 15:54:00,
2013-01-29 10:00:00,70.7,66.6,29.68,SW,229,5.0,19.0,87,0.00,,,0.00,Wunderground v.1.15,2013-01-29 16:00:00,
2013-01-29 10:06:00,71.0,66.6,29.68,SSW,205,6.0,19.0,86,0.00,,,0.00,Wunderground v.1.15,2013-01-29 16:06:00,
2013-01-29 10:12:00,71.4,66.7,29.70,WSW,243,6.0,16.0,85,0.00,,,0.00,Wunderground v.1.15,2013-01-29 16:12:00,
2013-01-29 10:18:00,71.7,66.6,29.69,West,271,6.0,16.0,84,0.00,,,0.00,Wunderground v.1.15,2013-01-29 16:18:00,
2013-01-29 10:24:00,72.0,66.6,29.69,SSW,209,6.0,16.0,83,0.00,,,0.00,Wunderground v.1.15,2013-01-29 16:24:00,
2013-01-29 10:30:00,72.4,66.6,29.69,West,259,6.0,6.0,82,0.00,,,0.00,Wunderground v.1.15,2013-01-29 16:30:00,
2013-01-29 10:36:00,72.5,66.7,29.68,SSE,148,6.0,16.0,82,0.00,,,0.00,Wunderground v.1.15,2013-01-29 16:36:00,
2013-01-29 10:42:00,72.7,66.9,29.68,SW,214,6.0,16.0,82,0.00,,,0.00,Wunderground v.1.15,2013-01-29 16:42:00,
2013-01-29 10:48:00,72.9,66.7,29.68,WSW,238,5.0,16.0,81,0.00,,,0.00,Wunderground v.1.15,2013-01-29 16:48:00,
2013-01-29 10:54:00,73.2,67.0,29.67,SW,219,5.0,16.0,81,0.00,,,0.00,Wunderground v.1.15,2013-01-29 16:54:00,
2013-01-29 11:00:00,73.5,66.9,29.68,SSE,149,5.0,16.0,80,0.00,,,0.00,Wunderground v.1.15,2013-01-29 17:00:00,
2013-01-29 11:06:00,73.5,66.9,29.67,West,276,5.0,16.0,80,0.00,,,0.00,Wunderground v.1.15,2013-01-29 17:06:00,
2013-01-29 11:12:00,73.7,67.1,29.68,WSW,240,6.0,14.0,80,0.00,,,0.00,Wunderground v.1.15,2013-01-29 17:12:00,
2013-01-29 11:18:00,73.9,67.0,29.67,SSE,149,5.0,14.0,79,0.00,,,0.00,Wunderground v.1.15,2013-01-29 17:18:00,
2013-01-29 11:24:00,74.0,67.1,29.67,NE,51,6.0,14.0,79,0.00,,,0.00,Wunderground v.1.15,2013-01-29 17:24:00,
2013-01-29 11:30:00,74.3,67.0,29.66,SSE,156,6.0,14.0,78,0.00,,,0.00,Wunderground v.1.15,2013-01-29 17:30:00,
2013-01-29 11:36:00,74.8,67.1,29.65,South,179,5.0,14.0,77,0.00,,,0.00,Wunderground v.1.15,2013-01-29 17:36:00,
2013-01-29 11:42:00,75.2,67.5,29.65,SSE,159,5.0,14.0,77,0.00,,,0.00,Wunderground v.1.15,2013-01-29 17:42:00,
2013-01-29 11:48:00,75.9,67.4,29.64,SSW,197,6.0,14.0,75,0.00,,,0.00,Wunderground v.1.15,2013-01-29 17:48:00,
2013-01-29 11:54:00,75.9,67.0,29.64,SW,224,6.0,14.0,74,0.00,,,0.00,Wunderground v.1.15,2013-01-29 17:54:00,
2013-01-29 12:00:00,76.5,67.2,29.64,South,174,7.0,14.0,73,0.00,,,0.00,Wunderground v.1.15,2013-01-29 18:00:00,
2013-01-29 12:06:00,77.1,67.0,29.64,SSE,150,7.0,18.0,71,0.00,,,0.00,Wunderground v.1.15,2013-01-29 18:06:00,
2013-01-29 12:12:00,77.6,67.0,29.63,South,188,8.0,18.0,70,0.00,,,0.00,Wunderground v.1.15,2013-01-29 18:12:00,
2013-01-29 12:18:00,78.1,66.7,29.62,WSW,258,8.0,18.0,68,0.00,,,0.00,Wunderground v.1.15,2013-01-29 18:18:00,
2013-01-29 12:24:00,78.3,66.9,29.61,SE,136,7.0,18.0,68,0.00,,,0.00,Wunderground v.1.15,2013-01-29 18:24:00,
2013-01-29 12:30:00,78.2,66.8,29.61,West,267,7.0,7.0,68,0.00,,,0.00,Wunderground v.1.15,2013-01-29 18:30:00,
2013-01-29 12:36:00,78.4,66.5,29.60,South,190,7.0,18.0,67,0.00,,,0.00,Wunderground v.1.15,2013-01-29 18:36:00,
2013-01-29 12:42:00,79.4,66.6,29.59,ESE,118,7.0,18.0,65,0.00,,,0.00,Wunderground v.1.15,2013-01-29 18:42:00,
2013-01-29 12:48:00,79.2,66.4,29.60,WSW,242,7.0,18.0,65,0.00,,,0.00,Wunderground v.1.15,2013-01-29 18:48:00,
2013-01-29 12:54:00,78.6,65.8,29.59,SSW,210,7.0,18.0,65,0.00,,,0.00,Wunderground v.1.15,2013-01-29 18:54:00,
2013-01-29 13:00:00,78.9,65.7,29.58,WSW,245,6.0,18.0,64,0.00,,,0.00,Wunderground v.1.15,2013-01-29 19:00:00,
2013-01-29 13:06:00,79.2,66.4,29.58,SW,219,6.0,18.0,65,0.00,,,0.00,Wunderground v.1.15,2013-01-29 19:06:00,
2013-01-29 13:12:00,79.3,65.6,29.57,South,181,7.0,18.0,63,0.00,,,0.00,Wunderground v.1.15,2013-01-29 19:12:00,
2013-01-29 13:18:00,79.6,65.9,29.57,WSW,243,7.0,18.0,63,0.00,,,0.00,Wunderground v.1.15,2013-01-29 19:18:00,
2013-01-29 13:24:00,79.6,65.4,29.56,WSW,255,7.0,18.0,62,0.00,,,0.00,Wunderground v.1.15,2013-01-29 19:24:00,
2013-01-29 13:30:00,79.9,65.7,29.56,WSW,255,7.0,7.0,62,0.00,,,0.00,Wunderground v.1.15,2013-01-29 19:30:00,
2013-01-29 13:36:00,80.3,65.1,29.56,West,266,6.0,18.0,60,0.00,,,0.00,Wunderground v.1.15,2013-01-29 19:36:00,
2013-01-29 13:42:00,80.2,65.1,29.56,SW,224,7.0,18.0,60,0.00,,,0.00,Wunderground v.1.15,2013-01-29 19:42:00,
2013-01-29 13:48:00,80.0,64.4,29.55,West,261,7.0,18.0,59,0.00,,,0.00,Wunderground v.1.15,2013-01-29 19:48:00,
2013-01-29 13:54:00,79.8,63.2,29.55,SW,229,8.0,18.0,57,0.00,,,0.00,Wunderground v.1.15,2013-01-29 19:54:00,
2013-01-29 14:00:00,79.8,63.2,29.54,WSW,257,8.0,8.0,57,0.00,,,0.00,Wunderground v.1.15,2013-01-29 20:00:00,
2013-01-29 14:02:00,79.8,62.7,29.54,West,267,8.0,17.0,56,0.00,,,0.00,Wunderground v.1.15,2013-01-29 20:02:00,
2013-01-29 14:08:00,80.0,62.9,29.53,WSW,249,8.0,17.0,56,0.00,,,0.00,Wunderground v.1.15,2013-01-29 20:08:00,
2013-01-29 14:14:00,80.1,62.5,29.53,SW,235,7.0,17.0,55,0.00,,,0.00,Wunderground v.1.15,2013-01-29 20:14:00,
2013-01-29 14:20:00,80.3,62.1,29.52,West,264,6.0,6.0,54,0.00,,,0.00,Wunderground v.1.15,2013-01-29 20:20:00,
2013-01-29 14:26:00,80.3,61.6,29.52,West,262,7.0,17.0,53,0.00,,,0.00,Wunderground v.1.15,2013-01-29 20:26:00,
2013-01-29 14:32:00,80.5,61.8,29.52,West,263,8.0,10.0,53,0.00,,,0.00,Wunderground v.1.15,2013-01-29 20:32:00,
2013-01-29 14:38:00,80.6,61.9,29.52,SW,232,7.0,17.0,53,0.00,,,0.00,Wunderground v.1.15,2013-01-29 20:38:00,
2013-01-29 14:44:00,80.8,62.1,29.51,SW,214,5.0,17.0,53,0.00,,,0.00,Wunderground v.1.15,2013-01-29 20:44:00,
2013-01-29 14:50:00,81.0,60.6,29.51,South,185,5.0,17.0,50,0.00,,,0.00,Wunderground v.1.15,2013-01-29 20:50:00,
2013-01-29 14:56:00,81.2,60.8,29.50,SSW,207,6.0,17.0,50,0.00,,,0.00,Wunderground v.1.15,2013-01-29 20:56:00,
2013-01-29 15:02:00,81.6,60.0,29.50,WSW,244,7.0,8.0,48,0.00,,,0.00,Wunderground v.1.15,2013-01-29 21:02:00,
2013-01-29 15:08:00,82.2,59.4,29.50,WSW,240,7.0,14.0,46,0.00,,,0.00,Wunderground v.1.15,2013-01-29 21:08:00,
2013-01-29 15:14:00,82.4,58.3,29.50,WSW,240,7.0,14.0,44,0.00,,,0.00,Wunderground v.1.15,2013-01-29 21:14:00,
2013-01-29 15:20:00,82.7,58.6,29.50,SSW,212,7.0,14.0,44,0.00,,,0.00,Wunderground v.1.15,2013-01-29 21:20:00,
2013-01-29 15:26:00,83.1,58.9,29.49,West,260,7.0,14.0,44,0.00,,,0.00,Wunderground v.1.15,2013-01-29 21:26:00,
2013-01-29 15:32:00,84.1,58.5,29.49,SSW,201,6.0,14.0,42,0.00,,,0.00,Wunderground v.1.15,2013-01-29 21:32:00,
2013-01-29 15:38:00,84.8,57.8,29.49,SSE,167,7.0,14.0,40,0.00,,,0.00,Wunderground v.1.15,2013-01-29 21:38:00,
2013-01-29 15:44:00,84.8,55.6,29.48,West,261,8.0,13.0,37,0.00,,,0.00,Wunderground v.1.15,2013-01-29 21:44:00,
2013-01-29 15:50:00,85.0,55.1,29.48,WSW,242,9.0,9.0,36,0.00,,,0.00,Wunderground v.1.15,2013-01-29 21:50:00,
2013-01-29 15:56:00,85.3,54.5,29.48,SW,222,8.0,16.0,35,0.00,,,0.00,Wunderground v.1.15,2013-01-29 21:56:00,
2013-01-29 16:02:00,84.9,54.2,29.47,SW,236,9.0,19.0,35,0.00,,,0.00,Wunderground v.1.15,2013-01-29 22:02:00,
2013-01-29 16:08:00,84.8,54.9,29.47,SSW,211,8.0,19.0,36,0.00,,,0.00,Wunderground v.1.15,2013-01-29 22:08:00,
2013-01-29 16:14:00,85.1,53.6,29.47,South,173,7.0,19.0,34,0.00,,,0.00,Wunderground v.1.15,2013-01-29 22:14:00,
2013-01-29 16:20:00,85.5,53.9,29.47,SW,235,8.0,8.0,34,0.00,,,0.00,Wunderground v.1.15,2013-01-29 22:20:00,
2013-01-29 16:26:00,85.6,53.2,29.46,SW,233,7.0,19.0,33,0.00,,,0.00,Wunderground v.1.15,2013-01-29 22:26:00,
2013-01-29 16:32:00,85.6,54.0,29.47,SSE,148,6.0,19.0,34,0.00,,,0.00,Wunderground v.1.15,2013-01-29 22:32:00,
2013-01-29 16:38:00,85.7,54.1,29.46,SW,233,6.0,19.0,34,0.00,,,0.00,Wunderground v.1.15,2013-01-29 22:38:00,
2013-01-29 16:44:00,85.6,54.0,29.47,SSW,210,7.0,19.0,34,0.00,,,0.00,Wunderground v.1.15,2013-01-29 22:44:00,
2013-01-29 16:50:00,85.4,54.6,29.46,SW,221,8.0,8.0,35,0.00,,,0.00,Wunderground v.1.15,2013-01-29 22:50:00,
2013-01-29 16:56:00,85.1,55.1,29.46,ESE,114,7.0,19.0,36,0.00,,,0.00,Wunderground v.1.15,2013-01-29 22:56:00,
2013-01-29 17:02:00,84.8,55.6,29.46,SSW,195,6.0,19.0,37,0.00,,,0.00,Wunderground v.1.15,2013-01-29 23:02:00,
2013-01-29 17:08:00,84.3,55.9,29.46,SSE,159,6.0,19.0,38,0.00,,,0.00,Wunderground v.1.15,2013-01-29 23:08:00,
2013-01-29 17:14:00,83.9,55.6,29.47,SE,130,5.0,16.0,38,0.00,,,0.00,Wunderground v.1.15,2013-01-29 23:14:00,
2013-01-29 17:20:00,83.6,55.3,29.47,SSE,148,5.0,5.0,38,0.00,,,0.00,Wunderground v.1.15,2013-01-29 23:20:00,
2013-01-29 17:26:00,83.4,54.4,29.47,SW,223,5.0,16.0,37,0.00,,,0.00,Wunderground v.1.15,2013-01-29 23:26:00,
2013-01-29 17:32:00,83.4,53.6,29.49,WSW,253,5.0,16.0,36,0.00,,,0.00,Wunderground v.1.15,2013-01-29 23:32:00,
2013-01-29 17:38:00,78.4,50.0,29.52,NW,313,8.0,25.0,37,0.00,,,0.00,Wunderground v.1.15,2013-01-29 23:38:00,
2013-01-29 17:44:00,73.5,47.7,29.52,NW,312,15.0,17.0,40,0.00,,,0.00,Wunderground v.1.15,2013-01-29 23:44:00,
2013-01-29 17:50:00,70.5,46.3,29.53,North,359,18.0,25.0,42,0.00,,,0.00,Wunderground v.1.15,2013-01-29 23:50:00,
2013-01-29 17:56:00,69.2,46.4,29.55,NNW,336,16.0,25.0,44,0.00,,,0.00,Wunderground v.1.15,2013-01-29 23:56:00,
2013-01-29 18:02:00,68.3,44.9,29.55,NNW,346,16.0,19.0,43,0.00,,,0.00,Wunderground v.1.15,2013-01-30 00:02:00,
2013-01-29 18:08:00,67.7,45.0,29.56,NNW,336,17.0,35.0,44,0.00,,,0.00,Wunderground v.1.15,2013-01-30 00:08:00,
2013-01-29 18:14:00,67.3,44.6,29.56,NNW,345,16.0,35.0,44,0.00,,,0.00,Wunderground v.1.15,2013-01-30 00:14:00,
2013-01-29 18:20:00,67.0,44.4,29.56,NNW,337,15.0,35.0,44,0.00,,,0.00,Wunderground v.1.15,2013-01-30 00:20:00,
2013-01-29 18:26:00,66.8,44.2,29.57,WSW,250,16.0,35.0,44,0.00,,,0.00,Wunderground v.1.15,2013-01-30 00:26:00,
2013-01-29 18:32:00,66.6,44.0,29.58,West,277,14.0,35.0,44,0.00,,,0.00,Wunderground v.1.15,2013-01-30 00:32:00,
2013-01-29 18:38:00,66.4,43.2,29.58,NNW,332,12.0,35.0,43,0.00,,,0.00,Wunderground v.1.15,2013-01-30 00:38:00,
2013-01-29 18:44:00,66.3,43.1,29.59,WNW,295,11.0,35.0,43,0.00,,,0.00,Wunderground v.1.15,2013-01-30 00:44:00,
2013-01-29 18:50:00,66.2,42.4,29.59,NNW,328,10.0,35.0,42,0.00,,,0.00,Wunderground v.1.15,2013-01-30 00:50:00,
2013-01-29 18:56:00,66.1,42.3,29.59,NNW,344,10.0,35.0,42,0.00,,,0.00,Wunderground v.1.15,2013-01-30 00:56:00,
2013-01-29 19:02:00,66.0,41.6,29.60,NNW,335,10.0,14.0,41,0.00,,,0.00,Wunderground v.1.15,2013-01-30 01:02:00,
2013-01-29 19:08:00,65.8,41.4,29.61,NNW,340,9.0,22.0,41,0.00,,,0.00,Wunderground v.1.15,2013-01-30 01:08:00,
2013-01-29 19:14:00,65.7,40.7,29.61,WNW,295,8.0,22.0,40,0.00,,,0.00,Wunderground v.1.15,2013-01-30 01:14:00,
2013-01-29 19:20:00,65.5,39.9,29.61,NW,316,9.0,9.0,39,0.00,,,0.00,Wunderground v.1.15,2013-01-30 01:20:00,
2013-01-29 19:26:00,65.4,39.1,29.62,WNW,297,10.0,22.0,38,0.00,,,0.00,Wunderground v.1.15,2013-01-30 01:26:00,
2013-01-29 19:32:00,65.2,38.9,29.62,NNW,330,9.0,22.0,38,0.00,,,0.00,Wunderground v.1.15,2013-01-30 01:32:00,
2013-01-29 19:38:00,65.1,38.8,29.63,North,355,10.0,22.0,38,0.00,,,0.00,Wunderground v.1.15,2013-01-30 01:38:00,
2013-01-29 19:44:00,64.9,38.7,29.63,WNW,296,8.0,22.0,38,0.00,,,0.00,Wunderground v.1.15,2013-01-30 01:44:00,
2013-01-29 19:50:00,64.9,38.0,29.63,West,281,9.0,9.0,37,0.00,,,0.00,Wunderground v.1.15,2013-01-30 01:50:00,
2013-01-29 19:56:00,64.7,37.8,29.64,North,5,8.0,22.0,37,0.00,,,0.00,Wunderground v.1.15,2013-01-30 01:56:00,
2013-01-29 20:02:00,64.7,37.8,29.65,ENE,68,7.0,20.0,37,0.00,,,0.00,Wunderground v.1.15,2013-01-30 02:02:00,
2013-01-29 20:08:00,64.5,37.6,29.66,NNW,331,6.0,20.0,37,0.00,,,0.00,Wunderground v.1.15,2013-01-30 02:08:00,
2013-01-29 20:14:00,64.4,37.5,29.66,NW,318,5.0,20.0,37,0.00,,,0.00,Wunderground v.1.15,2013-01-30 02:14:00,
2013-01-29 20:20:00,64.2,37.4,29.65,NW,315,5.0,20.0,37,0.00,,,0.00,Wunderground v.1.15,2013-01-30 02:20:00,
2013-01-29 20:26:00,63.9,37.8,29.66,NNW,337,6.0,20.0,38,0.00,,,0.00,Wunderground v.1.15,2013-01-30 02:26:00,
2013-01-29 20:32:00,63.9,37.1,29.66,WNW,300,7.0,20.0,37,0.00,,,0.00,Wunderground v.1.15,2013-01-30 02:32:00,
2013-01-29 20:38:00,63.8,37.0,29.67,NNW,343,6.0,20.0,37,0.00,,,0.00,Wunderground v.1.15,2013-01-30 02:38:00,
2013-01-29 20:44:00,63.6,36.8,29.67,NNE,23,5.0,20.0,37,0.00,,,0.00,Wunderground v.1.15,2013-01-30 02:44:00,
2013-01-29 20:50:00,63.4,37.3,29.67,NNW,333,4.0,4.0,38,0.00,,,0.00,Wunderground v.1.15,2013-01-30 02:50:00,
2013-01-29 20:56:00,63.1,37.1,29.68,WNW,301,4.0,20.0,38,0.00,,,0.00,Wunderground v.1.15,2013-01-30 02:56:00,
2013-01-29 21:02:00,63.0,37.0,29.68,NW,311,5.0,20.0,38,0.00,,,0.00,Wunderground v.1.15,2013-01-30 03:02:00,
2013-01-29 21:08:00,62.9,36.9,29.69,NNW,337,7.0,20.0,38,0.00,,,0.00,Wunderground v.1.15,2013-01-30 03:08:00,
2013-01-29 21:14:00,62.8,36.1,29.69,WNW,302,7.0,13.0,37,0.00,,,0.00,Wunderground v.1.15,2013-01-30 03:14:00,
2013-01-29 21:20:00,62.7,36.0,29.69,WNW,291,6.0,6.0,37,0.00,,,0.00,Wunderground v.1.15,2013-01-30 03:20:00,
2013-01-29 21:26:00,62.4,35.1,29.69,WNW,302,6.0,11.0,36,0.00,,,0.00,Wunderground v.1.15,2013-01-30 03:26:00,
2013-01-29 21:32:00,62.3,35.0,29.70,North,357,6.0,11.0,36,0.00,,,0.00,Wunderground v.1.15,2013-01-30 03:32:00,
2013-01-29 21:38:00,62.0,34.7,29.70,NW,323,5.0,11.0,36,0.00,,,0.00,Wunderground v.1.15,2013-01-30 03:38:00,
2013-01-29 21:44:00,61.8,34.5,29.70,North,349,5.0,11.0,36,0.00,,,0.00,Wunderground v.1.15,2013-01-30 03:44:00,
2013-01-29 21:50:00,61.6,34.4,29.70,NW,312,5.0,5.0,36,0.00,,,0.00,Wunderground v.1.15,2013-01-30 03:50:00,
2013-01-29 21:56:00,61.4,34.2,29.70,WNW,297,5.0,11.0,36,0.00,,,0.00,Wunderground v.1.15,2013-01-30 03:56:00,
2013-01-29 22:02:00,61.2,33.3,29.71,NW,326,5.0,10.0,35,0.00,,,0.00,Wunderground v.1.15,2013-01-30 04:02:00,
2013-01-29 22:08:00,61.1,33.2,29.72,West,274,5.0,10.0,35,0.00,,,0.00,Wunderground v.1.15,2013-01-30 04:08:00,
2013-01-29 22:14:00,60.9,33.0,29.73,NNW,328,4.0,10.0,35,0.00,,,0.00,Wunderground v.1.15,2013-01-30 04:14:00,
2013-01-29 22:20:00,60.8,33.0,29.73,NNE,19,5.0,10.0,35,0.00,,,0.00,Wunderground v.1.15,2013-01-30 04:20:00,
2013-01-29 22:26:00,60.5,32.7,29.73,NNW,345,5.0,10.0,35,0.00,,,0.00,Wunderground v.1.15,2013-01-30 04:26:00,
2013-01-29 22:32:00,60.3,32.5,29.74,NNW,345,5.0,10.0,35,0.00,,,0.00,Wunderground v.1.15,2013-01-30 04:32:00,
2013-01-29 22:38:00,60.1,31.6,29.74,NNW,337,5.0,10.0,34,0.00,,,0.00,Wunderground v.1.15,2013-01-30 04:38:00,
2013-01-29 22:44:00,60.0,30.8,29.74,West,269,7.0,10.0,33,0.00,,,0.00,Wunderground v.1.15,2013-01-30 04:44:00,
2013-01-29 22:50:00,59.9,29.2,29.74,NW,321,9.0,10.0,31,0.00,,,0.00,Wunderground v.1.15,2013-01-30 04:50:00,
2013-01-29 22:56:00,59.7,29.0,29.75,WNW,301,9.0,10.0,31,0.00,,,0.00,Wunderground v.1.15,2013-01-30 04:56:00,
2013-01-29 23:06:00,59.4,29.5,29.75,WNW,301,8.0,19.0,32,0.00,,,0.00,Wunderground v.1.15,2013-01-30 05:06:00,
2013-01-29 23:10:00,59.1,29.2,29.76,WNW,294,7.0,19.0,32,0.00,,,0.00,Wunderground v.1.15,2013-01-30 05:10:00,
2013-01-29 23:16:00,58.8,29.7,29.76,NW,316,5.0,19.0,33,0.00,,,0.00,Wunderground v.1.15,2013-01-30 05:16:00,
2013-01-29 23:18:00,58.7,29.6,29.76,NNW,338,4.0,19.0,33,0.00,,,0.00,Wunderground v.1.15,2013-01-30 05:18:00,
2013-01-29 23:24:00,58.3,29.3,29.76,North,354,3.0,19.0,33,0.00,,,0.00,Wunderground v.1.15,2013-01-30 05:24:00,
2013-01-29 23:30:00,58.2,28.5,29.77,NNW,328,4.0,19.0,32,0.00,,,0.00,Wunderground v.1.15,2013-01-30 05:30:00,
2013-01-29 23:36:00,58.0,28.3,29.78,NNW,335,5.0,19.0,32,0.00,,,0.00,Wunderground v.1.15,2013-01-30 05:36:00,
2013-01-29 23:42:00,58.0,28.3,29.78,NW,307,6.0,19.0,32,0.00,,,0.00,Wunderground v.1.15,2013-01-30 05:42:00,
2013-01-29 23:48:00,57.7,28.0,29.78,WNW,295,5.0,19.0,32,0.00,,,0.00,Wunderground v.1.15,2013-01-30 05:48:00,
2013-01-29 23:54:00,57.5,27.8,29.78,WNW,286,4.0,19.0,32,0.00,,,0.00,Wunderground v.1.15,2013-01-30 05:54:00,